map of KDDH home
Great Circle Mapper logo
KDDH - Airport
Location
City:  Bennington, Vermont, United States
Name:William H. Morse State Airport
ICAO:KDDH
FAA:DDH

Details
Type:Airport (Airfield)
Use:Public/Civil
Latitude:4253'28"N (42.891194)
Longitude:7314'46"W (-73.246082)
Datum:WGS 1984
Elevation:827 ft (252 m)
Variation:14.0W (WMM2015 magnetic declination)
Runways:1
Longest:3704 × 75 ft (1129 × 23 m), paved

Time
Time Zone:UTC-5 (DST-4)
Local Time:

Weather
METAR:KDDH 202254Z AUTO 19003KT 10SM FEW065 M06/M09 A3026 RMK AO2 SLP260 T10561089

Related Locations
Nearby:
Farthest:MGV: 11669 mi / 18779 km
Margaret River, WA, AU

Find:

   beyond  
but within

Other Information
Maps:
NOTAMs:
Links:
Sources:

  
flag of United States
flag of Vermont
  

Sectional Chart

Flight Planning
at skyvector.com

Satellite Image

Google Maps Satellite View

 

Copyright © 2004-2014 Karl L. Swartz. All rights reserved.
The Great Circle Mapper name and logo are trademarks of the Great Circle Mapper.
All other trademarks mentioned herein belong to their respective owners.
Please see credits for attibutions and further copyright information.

  Follow gcmap on Facebook Follow gcmap on Twitter

hCard Microformat

Geo Microformat